Terminal Aerodrome Forecast
Issued by NWS Denver/Boulder, CO

Home | Current Version | Previous Version | Text Only | Print | Product List | Glossary On
Versions: 1 2 3 4 5 6 7 8 9 10 11 12 13 14 15 16 17 18 19 20 21 22 23 24 25 26 27 28 29 30 31 32 33 34 35 36 37 38 39 40 41 42 43 44 45 46 47 48 49 50
000
FTUS45 KBOU 140232 AAC
TAFDEN
TAF AMD
KDEN 140232Z 1403/1506 31012KT P6SM FEW120 BKN250
     FM140330 31012G25KT P6SM SCT250
     FM140440 02018G30KT P6SM FEW080 SCT250
     FM140700 06010KT P6SM FEW080 SCT250
     FM141100 15008KT P6SM FEW120 SCT180
     FM141500 18008KT P6SM SCT120 BKN180
     FM142200 29010KT P6SM SCT080 BKN120
     FM150200 21008KT P6SM SCT080 BKN120=

USA.gov is the U.S. government's official web portal to all federal, state and local government web resources and services.